Theta_e
294 294 293 292 290 288 287 285 284 284 284 283 283 283 284 284 283 283 283 283 283 282
292 292 292 290 288 287 286 284 283 284 283 283 282 283 283 283 282 283 282 282 282 281
292 291 290 288 286 285 284 283 282 282 282 282 282 282 282 281 281 282 281 281 280 280
289 289 288 287 285 284 283 282 281 282 281 281 281 281 281 281 281 281 280 280 280 279
289 287 286 285 284 283 282 282 281 281 281 281 281 281 281 280 280 280 279 279 279 278
287 286 286 284 283 282 282 281 281 281 281 281 280 280 281 280 280 280 279 279 278 278
286 286 286 284 283 282 281 280 281 281 281 281 280 280 280 280 280 279 279 279 279 278
285 286 285 283 282 281 281 281 281 280 280 280 280 280 280 279 279 278 278 278 278 278
284 284 283 282 281 280 280 280 280 279 279 279 279 283 283 280 279 278 278 277 277 278
283 283 283 282 281 280 279 279 279 279 279 279 279 284 285 283 279 279 277 277 277 277
283 282 282 281 280 280 280 279 279 279 279 279 279 285 285 284 279 278 278 277 277 277
283 281 281 280 280 280 279 279 279 279 279 279 279 285 286 285 281 278 278 277 277 277
282 281 280 281 280 280 280 280 279 279 279 279 279 285 286 286 283 280 279 278 277 278
282 281 281 281 281 280 279 279 279 278 278 279 280 282 287 287 282 281 280 280 278 278
Wind_Speed
12 9 8 12 10 9 10 9 10 9 9 9 9 8 8 7 6 8 7 10 7 6
11 11 11 11 10 8 8 9 11 11 11 10 9 9 9 7 8 7 7 8 8 7
12 11 10 10 12 11 8 10 12 12 11 10 9 9 9 8 8 9 6 6 9 7
11 11 11 11 11 11 11 12 12 12 12 12 11 9 9 9 10 10 9 8 8 8
12 13 12 11 12 12 13 12 13 12 12 12 11 10 11 11 9 10 10 9 8 9
14 14 14 13 13 13 13 12 12 12 13 13 12 11 9 10 10 9 9 9 8 9
15 15 14 14 14 15 15 15 14 13 12 12 11 10 10 9 9 7 6 7 6 8
12 12 12 13 13 13 14 14 15 14 12 11 11 9 11 10 9 8 7 5 5 6
13 13 13 12 14 14 14 14 14 14 14 13 8 18 19 12 9 8 7 7 6 6
14 14 14 14 14 15 16 15 15 14 14 13 11 22 20 18 8 8 7 7 7 6
15 15 14 15 16 15 15 16 15 14 14 12 10 22 21 18 8 7 7 7 8 8
14 14 13 14 14 12 13 13 13 12 13 12 10 22 21 16 9 6 8 7 8 9
12 13 14 13 13 11 11 10 9 9 9 10 9 21 21 16 6 8 7 7 9 15
10 12 11 11 9 11 11 10 9 9 8 9 10 13 20 19 9 9 8 8 7 7
Wind_Direction
167 176 174 175 168 175 174 171 163 160 155 149 144 142 137 132 128 125 121 124 112 109
173 173 174 171 166 171 165 160 160 158 153 147 143 143 137 130 127 125 124 118 117 113
177 173 168 166 171 166 152 155 158 153 151 148 145 140 132 129 130 127 122 124 127 123
173 173 167 174 171 167 156 158 161 160 153 152 151 148 140 141 142 136 138 141 143 141
172 172 171 173 170 164 166 167 160 158 157 155 156 156 153 149 153 150 153 159 147 152
178 177 179 175 169 167 162 161 157 159 164 163 164 160 157 157 161 161 162 163 165 166
185 182 181 174 170 169 168 164 167 171 168 165 161 161 159 157 160 158 159 169 174 175
183 180 176 172 170 167 170 170 167 163 163 162 165 166 163 163 162 161 165 165 183 194
176 172 173 171 169 168 170 168 164 169 164 165 170 176 173 160 158 169 158 186 197 202
175 176 175 169 169 174 172 166 172 170 164 169 168 176 176 170 158 165 186 187 196 208
178 178 174 172 176 175 172 173 171 170 170 166 172 177 176 167 155 169 195 188 205 215
176 172 170 175 175 171 168 167 169 168 163 166 168 175 173 166 168 188 212 201 212 215
166 166 171 169 167 164 163 160 146 148 161 160 161 178 181 179 165 197 212 206 227 217
158 159 160 151 148 146 142 137 144 152 162 169 171 184 194 188 189 206 207 217 217 216